TimeCST,TemperatureF,Dew PointF,Humidity,Sea Level PressureIn,VisibilityMPH,Wind Direction,Wind SpeedMPH,Gust SpeedMPH,PrecipitationIn,Events,Conditions,WindDirDegrees,DateUTC
12:15 AM,7.7,3.4,83,30.26,10.0,SSW,8.1,-,N/A,,Clear,210,2013-01-04 06:15:00
12:35 AM,7.7,3.7,84,30.26,10.0,SW,5.8,-,N/A,,Clear,230,2013-01-04 06:35:00
12:55 AM,7.7,3.6,83,30.26,10.0,SW,4.6,-,N/A,,Clear,230,2013-01-04 06:55:00
1:15 AM,7.7,3.7,84,30.26,10.0,SW,6.9,-,N/A,,Clear,220,2013-01-04 07:15:00
1:35 AM,7.9,3.7,83,30.26,10.0,SW,6.9,-,N/A,,Clear,220,2013-01-04 07:35:00
1:55 AM,8.1,3.9,83,30.26,10.0,WSW,5.8,-,N/A,,Clear,240,2013-01-04 07:55:00
2:15 AM,10.2,6.1,83,30.26,10.0,SW,6.9,-,N/A,,Clear,220,2013-01-04 08:15:00
2:35 AM,9.1,4.8,83,30.25,10.0,SW,10.4,-,N/A,,Clear,220,2013-01-04 08:35:00
2:55 AM,10.2,5.9,83,30.26,10.0,SW,10.4,-,N/A,,Clear,220,2013-01-04 08:55:00
3:15 AM,10.2,5.9,83,30.25,10.0,SW,9.2,-,N/A,,Clear,220,2013-01-04 09:15:00
5:55 AM,14.0,9.1,81,30.21,10.0,SW,8.1,17.3,N/A,,Clear,230,2013-01-04 11:55:00
6:15 AM,14.0,9.3,82,30.21,10.0,SW,9.2,-,N/A,,Clear,230,2013-01-04 12:15:00
6:35 AM,15.3,10.4,81,30.21,10.0,WSW,12.7,-,N/A,,Clear,240,2013-01-04 12:35:00
6:55 AM,15.3,10.4,81,30.20,10.0,WSW,10.4,-,N/A,,Clear,240,2013-01-04 12:55:00
7:15 AM,14.0,9.3,82,30.20,10.0,WSW,5.8,-,N/A,,Clear,240,2013-01-04 13:15:00
7:35 AM,15.3,10.6,82,30.21,10.0,WSW,6.9,-,N/A,,Clear,240,2013-01-04 13:35:00
7:55 AM,15.3,10.4,81,30.21,10.0,WSW,8.1,-,N/A,,Clear,240,2013-01-04 13:55:00
8:15 AM,15.3,10.4,81,30.21,10.0,WSW,5.8,-,N/A,,Clear,240,2013-01-04 14:15:00
8:35 AM,15.3,10.0,80,30.21,10.0,SW,6.9,-,N/A,,Clear,230,2013-01-04 14:35:00
8:55 AM,15.8,10.2,79,30.21,10.0,SW,8.1,-,N/A,,Clear,230,2013-01-04 14:55:00
9:15 AM,17.6,12.2,79,30.21,10.0,SW,9.2,-,N/A,,Clear,230,2013-01-04 15:15:00
9:35 AM,19.0,13.1,78,30.22,10.0,WSW,11.5,-,N/A,,Clear,240,2013-01-04 15:35:00
9:55 AM,20.3,13.5,75,30.22,10.0,SW,11.5,17.3,N/A,,Clear,230,2013-01-04 15:55:00
10:15 AM,22.1,14.5,73,30.21,10.0,WSW,15.0,20.7,N/A,,Clear,240,2013-01-04 16:15:00
10:35 AM,24.3,16.0,71,30.21,10.0,WSW,13.8,17.3,N/A,,Clear,240,2013-01-04 16:35:00
11:15 AM,26.1,16.7,68,30.21,10.0,WSW,11.5,18.4,N/A,,Clear,250,2013-01-04 17:15:00
11:35 AM,27.5,18.1,68,30.21,10.0,WSW,9.2,-,N/A,,Clear,250,2013-01-04 17:35:00
11:55 AM,27.5,17.8,67,30.20,10.0,WSW,10.4,-,N/A,,Clear,250,2013-01-04 17:55:00
12:15 PM,27.5,17.8,67,30.19,10.0,WSW,6.9,-,N/A,,Clear,250,2013-01-04 18:15:00
12:35 PM,27.5,16.7,64,30.19,10.0,WSW,11.5,17.3,N/A,,Clear,250,2013-01-04 18:35:00
12:55 PM,27.5,16.7,64,30.18,10.0,WSW,10.4,-,N/A,,Clear,250,2013-01-04 18:55:00
1:15 PM,30.2,18.3,61,30.17,10.0,WSW,13.8,18.4,N/A,,Clear,250,2013-01-04 19:15:00
1:35 PM,30.2,18.1,61,30.17,10.0,WSW,11.5,19.6,N/A,,Clear,250,2013-01-04 19:35:00
1:55 PM,30.2,18.3,61,30.17,10.0,WSW,10.4,-,N/A,,Clear,240,2013-01-04 19:55:00
2:15 PM,30.2,18.9,63,30.17,10.0,WSW,8.1,-,N/A,,Clear,250,2013-01-04 20:15:00
2:35 PM,30.2,19.0,63,30.17,10.0,SW,11.5,-,N/A,,Clear,230,2013-01-04 20:35:00
2:55 PM,28.9,18.3,65,30.17,10.0,WSW,12.7,-,N/A,,Clear,240,2013-01-04 20:55:00
3:15 PM,30.2,19.2,64,30.18,10.0,WSW,8.1,-,N/A,,Clear,250,2013-01-04 21:15:00
3:35 PM,30.2,19.0,63,30.18,10.0,WSW,10.4,-,N/A,,Clear,250,2013-01-04 21:35:00
3:55 PM,28.9,18.3,65,30.18,10.0,WSW,6.9,-,N/A,,Clear,240,2013-01-04 21:55:00
4:15 PM,28.2,18.1,66,30.19,10.0,WSW,6.9,-,N/A,,Clear,240,2013-01-04 22:15:00
4:35 PM,27.5,18.1,68,30.19,10.0,WSW,5.8,-,N/A,,Clear,240,2013-01-04 22:35:00
4:55 PM,27.5,18.5,69,30.19,10.0,WSW,6.9,-,N/A,,Clear,240,2013-01-04 22:55:00
5:15 PM,27.5,18.9,70,30.19,10.0,WSW,4.6,-,N/A,,Clear,240,2013-01-04 23:15:00
5:35 PM,27.5,19.2,71,30.19,10.0,WSW,3.5,-,N/A,,Clear,250,2013-01-04 23:35:00
5:55 PM,27.5,19.2,71,30.19,10.0,SW,4.6,-,N/A,,Clear,230,2013-01-04 23:55:00
6:15 PM,23.2,16.0,74,30.19,10.0,SW,5.8,-,N/A,,Clear,230,2013-01-05 00:15:00
6:35 PM,23.9,16.5,73,30.20,10.0,SW,4.6,-,N/A,,Clear,220,2013-01-05 00:35:00
6:55 PM,22.6,15.8,75,30.21,10.0,WSW,3.5,-,N/A,,Clear,240,2013-01-05 00:55:00
7:15 PM,22.6,15.8,75,30.21,10.0,Calm,Calm,-,N/A,,Clear,0,2013-01-05 01:15:00
7:35 PM,23.5,16.3,74,30.21,10.0,Calm,Calm,-,N/A,,Clear,0,2013-01-05 01:35:00
7:55 PM,19.8,13.8,78,30.21,10.0,SSW,3.5,-,N/A,,Clear,200,2013-01-05 01:55:00
8:15 PM,19.9,14.7,80,30.21,10.0,South,3.5,-,N/A,,Clear,190,2013-01-05 02:15:00
8:35 PM,19.0,14.5,83,30.20,10.0,Calm,Calm,-,N/A,,Clear,0,2013-01-05 02:35:00
8:55 PM,19.6,15.3,83,30.20,10.0,Calm,Calm,-,N/A,,Clear,0,2013-01-05 02:55:00
9:15 PM,19.0,14.7,83,30.19,10.0,Calm,Calm,-,N/A,,Clear,0,2013-01-05 03:15:00
9:35 PM,17.6,13.6,84,30.18,10.0,Calm,Calm,-,N/A,,Clear,0,2013-01-05 03:35:00
9:55 PM,13.5,9.5,84,30.18,7.0,SSW,4.6,-,N/A,,Clear,200,2013-01-05 03:55:00
10:15 PM,12.7,10.0,89,30.19,7.0,South,4.6,-,N/A,,Clear,180,2013-01-05 04:15:00
10:35 PM,15.3,12.9,90,30.19,10.0,South,3.5,-,N/A,,Clear,180,2013-01-05 04:35:00
10:55 PM,15.3,12.2,88,30.19,10.0,South,3.5,-,N/A,,Clear,180,2013-01-05 04:55:00
11:15 PM,15.3,12.2,88,30.19,10.0,Calm,Calm,-,N/A,,Clear,0,2013-01-05 05:15:00
11:35 PM,13.3,10.2,88,30.18,10.0,South,3.5,-,N/A,,Clear,180,2013-01-05 05:35:00
11:55 PM,13.6,10.0,86,30.18,10.0,South,4.6,-,N/A,,Clear,180,2013-01-05 05:55:00